Miscellaneous Local Product
Issued by NWS Hastings, NE

Home | Current Version | Previous Version | Graphics & Text | Print | Product List | Glossary On
Versions: 1 2 3 4 5 6 7 8 9 10 11 12 13 14 15 16 17 18 19 20 21 22 23 24 25 26 27 28 29 30 31 32 33 34 35 36 37 38 39 40 41 42 43 44 45 46 47 48 49 50
000
AXUS43 KGID 021902
MISGRI

GID CWA HOURLY WEATHER ROUNDUP
NATIONAL WEATHER SERVICE HASTINGS NE
200 PM CDT SUN AUG 02 2015

NOTE: "FAIR" INDICATES FEW OR NO CLOUDS BELOW 12,000 FEET WITH NO
SIGNIFICANT WEATHER AND/OR OBSTRUCTIONS TO VISIBILITY.

...SOUTH CENTRAL NEBRASKA...

CITY           SKY/WX    TMP DP  RH WIND       PRES   REMARKS
GRAND ISLAND   SUNNY     93  71  48 SW13      29.88F HX 100
HASTINGS       SUNNY     91  70  49 SW9       29.90S HX  96
KEARNEY        SUNNY     91  70  49 S9        29.90S HX  97
ORD            SUNNY     94  61  33 VRB6      29.86S HX  94
YORK           SUNNY     88  77  70 W13       29.87S HX 100
AURORA         SUNNY     90  74  60 W6        29.88F HX  99
LEXINGTON      SUNNY     94  64  36 S12       29.90F HX  95
HOLDREGE       SUNNY     92  64  39 SW6       29.92S HX  93
HEBRON         SUNNY     92  66  43 W10       29.88S HX  94

...NEBRASKA PANHANDLE...

CITY           SKY/WX    TMP DP  RH WIND       PRES   REMARKS
CHADRON        SUNNY     88  55  32 E12       29.97F
ALLIANCE       SUNNY     93  55  27 NE6       29.99F HX  91
SCOTTSBLUFF    SUNNY     92  58  31 CALM      29.99F HX  91
SIDNEY         SUNNY     94  48  20 S12G20    30.03S HX  90

...WESTERN AND NORTH CENTRAL NEBRASKA...

CITY           SKY/WX    TMP DP  RH WIND       PRES   REMARKS
VALENTINE      NOT AVBL
AINSWORTH      SUNNY     85  65  50 NE10      29.94R
ONEILL         SUNNY     87  67  51 N12       29.90R HX  90
BROKEN BOW     MOSUNNY   97  61  30 W9        29.90F HX  97
IMPERIAL       SUNNY     95  59  30 SW6       29.95F HX  94
NORTH PLATTE   SUNNY     93  66  40 VRB5      29.92F HX  96
MCCOOK         SUNNY     96  60  30 E9        29.92F HX  96

...EASTERN NEBRASKA...

CITY           SKY/WX    TMP DP  RH WIND       PRES   REMARKS
NORFOLK        SUNNY     91  69  48 W7        29.84S HX  96
TEKAMAH        SUNNY     90  73  57 SW10      29.80S HX  98
COLUMBUS       SUNNY     91  72  52 SW8       29.84S HX  98
ALBION         SUNNY     91  70  50 SW6       29.86S HX  96
OMAHA EPPLEY   MOSUNNY   96  71  44 W14       29.81S HX 103
MILLARD        SUNNY     91  75  58 W10G16    29.82F HX 102
LINCOLN        SUNNY     95  72  47 W13       29.85S HX 103
NEBRASKA CITY  SUNNY     88  71  56 W13       29.85F HX  94
BEATRICE       SUNNY     91  73  55 SW9       29.87F HX  99
FALLS CITY     MOSUNNY   90  75  61 SW14      29.87S HX 100

...NORTHERN KANSAS...

CITY           SKY/WX    TMP DP  RH WIND       PRES   REMARKS
GOODLAND       MOSUNNY   92  55  28 S5        29.99F HX  90
HILL CITY      SUNNY     94  67  41 S8        29.92F HX  97
NORTON         CLEAR     93  61  33 SE6       29.92S HX  93
PHILLIPSBURG   SUNNY     97  66  36 SW7       29.90F HAZE    HX 100
SMITH CENTER   SUNNY     93  64  38 S5        29.90F HX  95
HAYS           SUNNY     93  66  40 S6        29.91F HX  96
RUSSELL        SUNNY     94  66  39 S8        29.89F HX  97
CONCORDIA      SUNNY     93  65  39 SW8       29.88F HX  95
SALINA         SUNNY     95  67  39 VRB7      29.89F HX  99
TOPEKA         SUNNY     91  69  48 SW15      29.89F HX  96



USA.gov is the U.S. government's official web portal to all federal, state and local government web resources and services.